| time (UTC) | temp F | wind direction | speed MPH | gust MPH | rain 1hr in | rain 24hr in | rain mn in | humidity % | barometer mb |
| 20260831191505 | 73 | 107 | 6.0 | 11.0 | 0.00 | 0.02 | 0.02 | 67 | 1040.4 |
| 20260831190005 | 73 | 121 | 5.0 | 11.0 | 0.00 | 0.02 | 0.02 | 67 | 1040.7 |
| 20260831184505 | 74 | 111 | 6.0 | 12.0 | 0.00 | 0.02 | 0.02 | 66 | 1040.7 |
| 20260831183025 | 73 | 119 | 6.0 | 11.0 | 0.00 | 0.02 | 0.02 | 65 | 1040.7 |
| 20260831181505 | 73 | 103 | 6.0 | 14.0 | 0.00 | 0.02 | 0.02 | 66 | 1040.6 |
| 20260831180005 | 72 | 114 | 7.0 | 13.0 | 0.00 | 0.02 | 0.02 | 68 | 1040.6 |
| 20260831174504 | 71 | 114 | 7.0 | 15.0 | 0.00 | 0.02 | 0.02 | 70 | 1040.5 |
| 20260831173005 | 70 | 124 | 8.0 | 14.0 | 0.00 | 0.02 | 0.02 | 72 | 1040.5 |
| 20260831171504 | 69 | 127 | 6.0 | 14.0 | 0.00 | 0.02 | 0.02 | 75 | 1040.4 |
| 20260831170025 | 69 | 121 | 4.0 | 9.0 | 0.00 | 0.02 | 0.02 | 72 | 1040.4 |
| 20260831164505 | 69 | 121 | 3.0 | 11.0 | 0.00 | 0.02 | 0.02 | 72 | 1040.3 |
| 20260831163004 | 70 | 129 | 6.0 | 14.0 | 0.00 | 0.02 | 0.02 | 68 | 1039.9 |
| 20260831161504 | 71 | 126 | 8.0 | 14.0 | 0.00 | 0.02 | 0.02 | 66 | 1039.8 |
| 20260831160005 | 69 | 109 | 1.0 | 6.0 | 0.00 | 0.02 | 0.02 | 65 | 1039.8 |
| 20260831154504 | 68 | 116 | 3.0 | 8.0 | 0.00 | 0.02 | 0.02 | 67 | 1039.8 |
| 20260831153026 | 66 | 110 | 1.0 | 3.0 | 0.00 | 0.02 | 0.02 | 73 | 1039.6 |
| 20260831151504 | 65 | 0 | 0.0 | 0.0 | 0.00 | 0.02 | 0.02 | 76 | 1039.4 |
| 20260831150004 | 66 | 91 | 0.0 | 1.0 | 0.00 | 0.02 | 0.02 | 77 | 1039.4 |
| 20260831144504 | 65 | 107 | 1.0 | 3.0 | 0.00 | 0.02 | 0.02 | 75 | 1039.2 |
| 20260831143025 | 63 | 280 | 0.0 | 1.0 | 0.00 | 0.02 | 0.02 | 77 | 1039.4 |
| 20260831141504 | 62 | 294 | 0.0 | 1.0 | 0.00 | 0.02 | 0.02 | 78 | 1039.4 |
| 20260831140005 | 61 | 0 | 0.0 | 0.0 | 0.00 | 0.02 | 0.02 | 80 | 1039.2 |
| 20260831134505 | 60 | 339 | 0.0 | 1.0 | 0.00 | 0.02 | 0.02 | 81 | 1039.0 |
| 20260831133005 | 60 | 0 | 0.0 | 0.0 | 0.00 | 0.02 | 0.02 | 80 | 1038.8 |
| 20260831131505 | 60 | 0 | 0.0 | 0.0 | 0.00 | 0.02 | 0.02 | 80 | 1038.7 |
| 20260831130004 | 60 | 0 | 0.0 | 0.0 | 0.00 | 0.02 | 0.02 | 80 | 1038.5 |
| 20260831124504 | 60 | 340 | 0.0 | 1.0 | 0.00 | 0.02 | 0.02 | 80 | 1038.3 |
| 20260831123004 | 59 | 0 | 0.0 | 0.0 | 0.00 | 0.02 | 0.02 | 79 | 1038.1 |
| 20260831121504 | 59 | 235 | 0.0 | 1.0 | 0.00 | 0.02 | 0.02 | 79 | 1037.8 |
| 20260831120005 | 59 | 260 | 0.0 | 1.0 | 0.00 | 0.02 | 0.02 | 80 | 1037.6 |
| 20260831114505 | 59 | 0 | 0.0 | 0.0 | 0.00 | 0.02 | 0.02 | 80 | 1037.7 |
| 20260831113004 | 59 | 230 | 0.0 | 1.0 | 0.00 | 0.02 | 0.02 | 81 | 1037.6 |
| 20260831111504 | 60 | 0 | 0.0 | 0.0 | 0.00 | 0.02 | 0.02 | 81 | 1037.8 |
| 20260831110004 | 60 | 0 | 0.0 | 0.0 | 0.00 | 0.02 | 0.02 | 81 | 1037.9 |
| 20260831104504 | 60 | 249 | 0.0 | 1.0 | 0.00 | 0.02 | 0.02 | 81 | 1038.1 |
| 20260831103005 | 60 | 0 | 0.0 | 0.0 | 0.00 | 0.02 | 0.02 | 80 | 1038.2 |
| 20260831101504 | 61 | 0 | 0.0 | 0.0 | 0.00 | 0.02 | 0.02 | 79 | 1038.4 |
| 20260831100004 | 62 | 0 | 0.0 | 0.0 | 0.00 | 0.02 | 0.02 | 77 | 1038.4 |
| 20260831094503 | 63 | 0 | 0.0 | 0.0 | 0.00 | 0.02 | 0.02 | 75 | 1038.6 |
| 20260831093004 | 65 | 45 | 0.0 | 1.0 | 0.00 | 0.02 | 0.02 | 70 | 1039.1 |
| 20260831091525 | 65 | 98 | 1.0 | 4.0 | 0.00 | 0.02 | 0.02 | 68 | 1039.3 |
| 20260831090003 | 66 | 335 | 1.0 | 5.0 | 0.00 | 0.02 | 0.02 | 67 | 1039.6 |
| 20260831084525 | 66 | 139 | 1.0 | 8.0 | 0.00 | 0.02 | 0.02 | 66 | 1039.1 |
| 20260831083024 | 66 | 119 | 5.0 | 11.0 | 0.02 | 0.02 | 0.02 | 65 | 1039.1 |
| 20260831081503 | 66 | 128 | 5.0 | 12.0 | 0.02 | 0.02 | 0.02 | 67 | 1039.0 |
| 20260831080004 | 67 | 121 | 7.0 | 15.0 | 0.02 | 0.02 | 0.02 | 66 | 1039.1 |
| 20260831074504 | 66 | 136 | 3.0 | 10.0 | 0.02 | 0.02 | 0.02 | 74 | 1039.4 |
| 20260831073003 | 67 | 221 | 1.0 | 6.0 | 0.00 | 0.00 | 0.00 | 73 | 1039.0 |
| 20260831071503 | 68 | 230 | 1.0 | 3.0 | 0.00 | 0.00 | 0.00 | 76 | 1038.9 |
| 20260831070025 | 69 | 217 | 4.0 | 10.0 | 0.00 | 0.00 | 0.00 | 73 | 1039.0 |
| 20260831064524 | 72 | 229 | 4.0 | 13.0 | 0.00 | 0.00 | 0.00 | 71 | 1039.0 |
| 20260831063004 | 73 | 127 | 1.0 | 4.0 | 0.00 | 0.00 | 0.00 | 72 | 1037.8 |
| 20260831061503 | 72 | 293 | 0.0 | 1.0 | 0.00 | 0.00 | 0.00 | 71 | 1037.6 |
| 20260831060024 | 72 | 274 | 0.0 | 1.0 | 0.00 | 0.00 | 0.00 | 72 | 1037.6 |
| 20260831054503 | 72 | 290 | 0.0 | 1.0 | 0.00 | 0.00 | 0.00 | 72 | 1037.8 |
| 20260831053003 | 72 | 233 | 0.0 | 1.0 | 0.00 | 0.00 | 0.00 | 72 | 1038.1 |
| 20260831051525 | 72 | 225 | 0.0 | 2.0 | 0.00 | 0.00 | 0.00 | 72 | 1037.8 |
| 20260831050024 | 73 | 282 | 0.0 | 1.0 | 0.00 | 0.00 | 0.00 | 72 | 1037.6 |
| 20260831044503 | 73 | 270 | 0.0 | 1.0 | 0.00 | 0.00 | 0.00 | 70 | 1037.9 |
| 20260831043003 | 73 | 127 | 0.0 | 1.0 | 0.00 | 0.00 | 0.00 | 69 | 1038.0 |
| 20260831041507 | 74 | 129 | 0.0 | 1.0 | 0.00 | 0.00 | 0.00 | 67 | 1037.8 |
| 20260831040028 | 75 | 112 | 1.0 | 4.0 | 0.00 | 0.00 | 0.00 | 66 | 1037.9 |
| 20260831034507 | 74 | 222 | 0.0 | 2.0 | 0.00 | 0.00 | 0.00 | 67 | 1038.0 |
| 20260831033007 | 74 | 195 | 0.0 | 1.0 | 0.00 | 0.00 | 0.00 | 67 | 1037.4 |
| 20260831031507 | 74 | 0 | 0.0 | 0.0 | 0.00 | 0.00 | 0.00 | 66 | 1037.1 |
| 20260831030028 | 75 | 226 | 0.0 | 2.0 | 0.00 | 0.00 | 0.00 | 65 | 1037.1 |
| 20260831024528 | 75 | 242 | 0.0 | 1.0 | 0.00 | 0.00 | 0.00 | 65 | 1037.0 |
| 20260831023007 | 76 | 291 | 0.0 | 1.0 | 0.00 | 0.01 | 0.00 | 64 | 1036.9 |
| 20260831021507 | 76 | 259 | 0.0 | 1.0 | 0.00 | 0.05 | 0.00 | 63 | 1037.0 |
| 20260831020007 | 77 | 279 | 0.0 | 3.0 | 0.00 | 0.05 | 0.00 | 61 | 1036.7 |
| 20260831014507 | 78 | 272 | 1.0 | 4.0 | 0.00 | 0.08 | 0.00 | 59 | 1036.6 |
| 20260831013007 | 78 | 244 | 1.0 | 4.0 | 0.00 | 0.09 | 0.00 | 58 | 1036.6 |
| 20260831011507 | 79 | 250 | 1.0 | 4.0 | 0.00 | 0.10 | 0.00 | 57 | 1036.8 |
| 20260831010007 | 79 | 250 | 1.0 | 3.0 | 0.00 | 0.11 | 0.00 | 56 | 1036.8 |
| 20260831004506 | 79 | 279 | 0.0 | 2.0 | 0.00 | 0.13 | 0.00 | 55 | 1036.8 |
| 20260831003007 | 80 | 280 | 0.0 | 3.0 | 0.00 | 0.15 | 0.00 | 54 | 1036.8 |
| 20260831001507 | 81 | 263 | 1.0 | 3.0 | 0.00 | 0.18 | 0.00 | 52 | 1036.6 |
| 20260831000007 | 81 | 251 | 1.0 | 3.0 | 0.00 | 0.18 | 0.00 | 50 | 1036.3 |
| 20260830234507 | 82 | 261 | 2.0 | 7.0 | 0.00 | 0.18 | 0.00 | 50 | 1036.8 |
| 20260830233007 | 82 | 255 | 2.0 | 6.0 | 0.00 | 0.18 | 0.00 | 48 | 1036.8 |
| 20260830231506 | 83 | 210 | 2.0 | 6.0 | 0.00 | 0.18 | 0.00 | 47 | 1036.8 |
| 20260830230006 | 84 | 211 | 2.0 | 10.0 | 0.00 | 0.18 | 0.00 | 47 | 1036.9 |
| 20260830224506 | 84 | 221 | 2.0 | 7.0 | 0.00 | 0.18 | 0.00 | 46 | 1037.0 |
| 20260830223006 | 84 | 222 | 2.0 | 8.0 | 0.00 | 0.18 | 0.00 | 46 | 1037.2 |
| 20260830221506 | 85 | 229 | 2.0 | 8.0 | 0.00 | 0.18 | 0.00 | 46 | 1037.6 |
| 20260830220006 | 86 | 236 | 2.0 | 7.0 | 0.00 | 0.18 | 0.00 | 45 | 1037.6 |
| 20260830214506 | 85 | 220 | 3.0 | 8.0 | 0.00 | 0.18 | 0.00 | 47 | 1038.0 |
| 20260830213006 | 86 | 184 | 2.0 | 8.0 | 0.00 | 0.18 | 0.00 | 46 | 1038.2 |
| 20260830211506 | 86 | 184 | 3.0 | 8.0 | 0.00 | 0.18 | 0.00 | 46 | 1038.4 |
| 20260830210027 | 86 | 139 | 3.0 | 9.0 | 0.00 | 0.18 | 0.00 | 46 | 1038.6 |
| 20260830204506 | 86 | 178 | 2.0 | 6.0 | 0.00 | 0.18 | 0.00 | 45 | 1038.9 |
| 20260830203006 | 85 | 210 | 2.0 | 10.0 | 0.00 | 0.18 | 0.00 | 47 | 1039.2 |
| 20260830201506 | 83 | 246 | 2.0 | 6.0 | 0.00 | 0.18 | 0.00 | 48 | 1039.3 |
| 20260830200006 | 85 | 221 | 2.0 | 8.0 | 0.00 | 0.18 | 0.00 | 46 | 1039.4 |
| 20260830194507 | 87 | 211 | 2.0 | 8.0 | 0.00 | 0.18 | 0.00 | 45 | 1039.4 |
| 20260830193006 | 84 | 170 | 3.0 | 8.0 | 0.00 | 0.18 | 0.00 | 47 | 1039.6 |